Weather History for Yakima, WA

Change the Weather History Date:

Monday, May 27, 2013

  Actual Average Record
Temperature  
Mean Temperature 11 °C 16 °C  
Max Temperature 16 °C 24 °C 32 °C (1983)
Min Temperature 6 °C 7 °C 0 °C (1973)
Degree Days  
Heating Degree Days 13 6  
Month to date heating degree days 160 239  
Since 1 July heating degree days 5116 5921  
Cooling Degree Days 0 1  
Month to date cooling degree days 51 16  
Year to date cooling degree days 52 17  
Growing Degree Days 2 (Base 50)    
Moisture  
Dew Point 8 °C    
Average Humidity 78    
Maximum Humidity 89    
Minimum Humidity 66    
Precipitation  
Precipitation 0.76 mm 0.51 mm 1.19 mm (2010)
Month to date precipitation 2.17 0.49  
Year to date precipitation 3.47 3.58  
Snow  
Snow 0.00 cm 0.00 cm 0.00 cm (2002)
Month to date snowfall 0.0 0.0  
Year to date snowfall 1.1 8.6  
Since 1 July snowfall 15.3 21.6  
Snow Depth 0.00 cm    
Sea Level Pressure  
Sea Level Pressure 1010 hPa    
Wind  
Wind Speed 7 km/h (SSE)    
Max Wind Speed 16 km/h    
Max Gust Speed 24 km/h    
Visibility 16 kilometers    
Events Rain    
T = Trace of Precipitation, MM = Missing Value Source: NWS Daily Summary

Daily Weather History Graph

Daily Weather History Graph

Search for Another Location

Airport:

Trip Planner

Search our weather history database for the weather conditions in past years. The results will help you decide how hot, cold, wet, or windy it might be!

Date:

Astronomy

May. 27, 2013 Rise Set
Actual Time 5:15 AM PDT 8:43 PM PDT
Civil Twilight 4:38 AM PDT 9:20 PM PDT
Nautical Twilight 3:49 AM PDT 10:10 PM PDT
Astronomical Twilight 2:45 AM PDT 11:15 PM PDT
Moon 11:21 PM PDT (5/27) 8:02 AM PDT (5/27)
Length of Visible Light 16h 42m
Length of Day
15h 27m
Waning Gibbous, 90% of the Moon is Illuminated
May 27
Waning Gibbous
May 31
Last Quarter
Jun 8
New
Jun 16
First Quarter
Jun 23
Full

Hourly Weather History & Observations

Time (PDT) Temp. Windchill Dew Point Humidity Pressure Visibility Wind Dir Wind Speed Gust Speed Precip Events Conditions
12:53 AM 10.6 °C - 6.1 °C 74% 1013.3 hPa 16.1 km SW 7.4 km/h / 2.1 m/s - N/A   Clear
1:53 AM 8.9 °C - 6.1 °C 83% 1013.4 hPa 16.1 km West 5.6 km/h / 1.5 m/s - N/A   Scattered Clouds
2:53 AM 7.8 °C 6.6 °C 5.6 °C 86% 1013.2 hPa 16.1 km Variable 7.4 km/h / 2.1 m/s - N/A   Clear
3:53 AM 7.2 °C 5.9 °C 5.0 °C 86% 1012.9 hPa 16.1 km West 7.4 km/h / 2.1 m/s - N/A   Clear
4:53 AM 6.7 °C 4.9 °C 4.4 °C 85% 1012.6 hPa 16.1 km West 9.3 km/h / 2.6 m/s - N/A   Clear
5:53 AM 7.2 °C 5.5 °C 5.0 °C 86% 1012.5 hPa 16.1 km West 9.3 km/h / 2.6 m/s - N/A   Clear
6:53 AM 9.4 °C - 6.1 °C 80% 1012.1 hPa 16.1 km Calm Calm - N/A   Clear
7:53 AM 11.1 °C - 7.2 °C 77% 1012.0 hPa 16.1 km Calm Calm - N/A   Clear
8:53 AM 12.8 °C - 6.7 °C 67% 1011.5 hPa 16.1 km Calm Calm - N/A   Mostly Cloudy
9:53 AM 13.3 °C - 7.2 °C 67% 1011.3 hPa 16.1 km Calm Calm - 0.0 mm Rain Light Rain
10:53 AM 14.4 °C - 8.3 °C 67% 1010.7 hPa 16.1 km East 5.6 km/h / 1.5 m/s - 0.0 mm Rain Light Rain
11:53 AM 13.9 °C - 8.9 °C 72% 1010.5 hPa 16.1 km SE 11.1 km/h / 3.1 m/s - 0.3 mm Rain Light Rain
12:53 PM 14.4 °C - 9.4 °C 72% 1010.1 hPa 16.1 km SE 16.7 km/h / 4.6 m/s - 0.0 mm Rain Light Rain
1:53 PM 14.4 °C - 10.0 °C 75% 1009.9 hPa 16.1 km SE 14.8 km/h / 4.1 m/s - 0.0 mm Rain Light Rain
2:53 PM 14.4 °C - 10.6 °C 78% 1009.5 hPa 16.1 km ESE 9.3 km/h / 2.6 m/s - 0.3 mm Rain Light Rain
3:53 PM 14.4 °C - 11.1 °C 81% 1009.3 hPa 16.1 km ESE 13.0 km/h / 3.6 m/s - 0.3 mm Rain Light Rain
4:53 PM 14.4 °C - 10.6 °C 78% 1009.0 hPa 16.1 km ESE 13.0 km/h / 3.6 m/s - 0.0 mm   Mostly Cloudy
5:53 PM 15.6 °C - 10.6 °C 72% 1008.6 hPa 16.1 km SE 11.1 km/h / 3.1 m/s - N/A   Mostly Cloudy
6:53 PM 15.6 °C - 10.0 °C 69% 1008.0 hPa 16.1 km SE 7.4 km/h / 2.1 m/s - N/A   Overcast
7:53 PM 15.0 °C - 9.4 °C 69% 1008.1 hPa 16.1 km SE 13.0 km/h / 3.6 m/s - N/A   Overcast
8:53 PM 13.9 °C - 10.6 °C 81% 1007.8 hPa 16.1 km ESE 9.3 km/h / 2.6 m/s - 0.0 mm   Mostly Cloudy
9:53 PM 13.9 °C - 10.0 °C 77% 1008.2 hPa 16.1 km Calm Calm - 0.0 mm   Mostly Cloudy
10:53 PM 11.7 °C - 9.4 °C 86% 1008.2 hPa 16.1 km West 5.6 km/h / 1.5 m/s - N/A   Scattered Clouds
11:53 PM 11.7 °C - 9.4 °C 86% 1008.3 hPa 16.1 km NW 5.6 km/h / 1.5 m/s - N/A   Mostly Cloudy